User: anonymous   Login
Location: ??
(35.5052°N, 139.7262°E)
Time: 07:11:12
(UTC+00:00)
Language:

Cosmos 1812 - Orbit

View from above orbital plane
View from above orbital plane
View from above satellite
View from above satellite

Ground track
Ground track

The orbit data is extracted from the following two-line orbital elements,

1 17295U 87003A   21267.88957103  .00001254  00000-0  63359-4 0  9993
2 17295  82.5147  47.6729 0004674 113.4119 246.7606 15.16172613895049
Epoch (UTC): 24 September 2021 21:20:58
Eccentricity: 0.0004674
inclination: 82.5147°
perigee height: 514 km
apogee height: 520 km
right ascension of ascending node: 47.6729°
argument of perigee: 113.4119°
revolutions per day: 15.16172613
mean anomaly at epoch: 246.7606°
orbit number at epoch: 89504

The dashed part of the orbit path shows where the satellite is in the earth's shadow,  

DLR